Regional Weather Roundup
Issued by NWS State College, PA

Home | Current Version | Previous Version | Text Only | Print | Product List | Glossary On
Versions: 1 2 3 4 5 6 7 8 9 10 11 12 13 14 15 16 17 18 19 20 21 22 23 24 25 26 27 28 29 30 31 32 33 34 35 36 37 38 39 40 41 42 43 44 45 46 47 48 49 50
000
ASUS41 KCTP 271910
RWRCTP

REGIONAL WEATHER ROUNDUP
NATIONAL WEATHER SERVICE STATE COLLEGE PA
300 PM EDT TUE JUN 27 2017

Note: "fair" indicates few or no clouds below 12,000 feet with no
significant weather and/or obstructions to visibility.

* = STATION THAT DOES NOT REPORT PRECIPITATION /E.G. RAIN...SNOW...ETC/
    THUNDER OR FOG.

PAZ002>004-007>009-013>016-020>023-029>032-272000-
WESTERN PENNSYLVANIA

CITY           SKY/WX    TMP DP  RH WIND       PRES   REMARKS
ERIE           PTSUNNY   64  51  62 SW12G22   30.05S
MEADVILLE      PTSUNNY   61  50  67 NW13      30.07S
FRANKLIN*      PTSUNNY   57  48  72 W12       30.07S
NEW CASTLE     MOCLDY    67  50  54 W12       30.08S
BEAVER COUNTY  NOT AVBL
BUTLER*        CLOUDY    64  48  55 W10       30.07F
PITTSBURGH INT PTSUNNY   66  50  56 W13       30.07S
PITTSBURGH     PTSUNNY   67  46  47 NW8G22    30.07S
INDIANA*       CLOUDY    64  48  55 W7G17     30.08S
LATROBE        PTSUNNY   64  46  52 W12G23    30.08S
WASHINGTON CO* PTSUNNY   66  45  45 W8G16     30.10F
$$

PAZ004>006-010>012-017>019-024>028-033>037-041-042-045-046-049>053-272000-
CENTRAL PENNSYLVANIA

CITY           SKY/WX    TMP DP  RH WIND       PRES   REMARKS
BRADFORD       PTSUNNY   59  50  72 SW10G18   30.02S
DUBOIS         PTSUNNY   62  49  62 W14       30.04S
CLEARFIELD     CLOUDY    62  46  55 W15G23    30.05R
JOHNSTOWN      CLOUDY    62  44  51 W17G25    30.07R
ALTOONA        CLOUDY    66  46  48 W10       30.05R
STATE COLLEGE  PTSUNNY   68  46  45 NW14G29   30.02R
WILLIAMSPORT   MOSUNNY   74  47  38 W13G24    29.95S
SELINSGROVE    CLOUDY    72  49  44 W9        29.98S
FT INDIANTOWN  MOSUNNY   76  47  36 W12G21    29.97S
CAPITAL CITY   MOSUNNY   77  45  32 W12G23    29.97F
HARRISBURG     MOSUNNY   76  51  41 W16       29.97S
YORK           SUNNY     76  50  40 W14G21    29.99S
$$

PAZ038>040-043-044-047-048-054-055-060>062-067>071-272000-
EASTERN PENNSYLVANIA

CITY           SKY/WX    TMP DP  RH WIND       PRES   REMARKS
SCRANTON       PTSUNNY   69  48  47 SW13G23   29.96F
MOUNT POCONO   LGT RAIN  57  50  77 W14       30.00R
ALLENTOWN      SUNNY     77  51  40 W14G21    29.95F
QUAKERTOWN*    PTCLDY    75  50  41 W12       29.97S
READING        MOSUNNY   76  50  40 W14G23    29.96F
LANCASTER      SUNNY     77  49  37 W18       29.97F
COATESVILLE    PTCLDY    73  50  43 VRB7      30.00S
POTTSTOWN      MOSUNNY   73  48  41 VRB6G20   29.98F
BLUE BELL      PTSUNNY   77  55  47 SW6       29.98S
DOYLESTOWN     MOSUNNY   76  53  44 SW8       29.95F
WILLOW GROVE   NOT AVBL
NORTH PHILA    MOSUNNY   80  57  45 W13G21    29.97F
PHILADELPHIA   MOSUNNY   79  51  37 SW14G20   29.96F
$$



USA.gov is the U.S. government's official web portal to all federal, state and local government web resources and services.